Kezdőlap
METAR-TAF:

METAR-TAF

Repülőterek :

Raton Municipal Airport (Crews Field)

Raton, Új-Mexikó, Amerikai Egyesült Államok

földrajzi szélesség: 36-44-31N, földrajzi hosszúság: 104-39-28W, magasság: 1935 m

Jelenlegi meteorológiai megfigyelések

A jelentés 31 perccel ezelõtt készült, 05:53 UTC
Nyugat-északnyugati szél 4 kt
Hőmérséklet 17°C
Páratartalom 59%
Légköri nyomás 1023 hPa
Látótávolság: 16.1 km
Derült ég

METAR: KRTN 240553Z AUTO 30004KT 10SM CLR 17/09 A3022 RMK AO2 SLP130 T01720094 10272 20172 51008

Idő: 00:24 (06:24 UTC)


TAF: hiányzik

Meteorológiai megfigyelések és előrejelzések több, mint 4000 repülőtéren (METAR és TAF jelentéseket).

A térképen piros és sárga pontok jelzik az elérhető meteorológiai állomásokat.

Mozgassa az egeret a pont fölött, hogy megjelenjen az állomás neve.

Azután kattintson az időjárási megfigyelések és előrejelzések megtekintéséhez.

A térkép megváltoztatása: kattintson a fekete keresztel jelölt zöld gombra ráközelítéshez, a vonallal jelölt zöld gombra távolításhoz, vagy a zöld nyilakra a szomszédos térképek eléréséhez.


METAR-TAF: